Regional Weather Roundup
Issued by NWS

Home | Current Version | Previous Version | Text Only | Print | Product List | Glossary Off
Versions: 1 2 3 4 5 6 7 8 9 10 11 12 13 14 15 16 17 18 19 20 21 22 23 24 25 26 27 28 29 30 31 32 33 34 35 36 37 38 39 40 41 42 43 44 45 46 47 48 49 50

000
ASUS43 KDMX 240506
RWRIA

WEATHER ROUNDUP FOR IOWA
NATIONAL WEATHER SERVICE DES MOINES IA
1200 AM CDT THU AUG 24 2017

NOTE: "FAIR" INDICATES FEW OR NO CLOUDS BELOW 12,000 FEET WITH NO
SIGNIFICANT WEATHER AND/OR OBSTRUCTIONS TO VISIBILITY.

* - THESE STATIONS ARE NOT NWS STATIONS...THUS NOT UNDER NWS
QUALITY CONTROL.  THEY ALSO DO NOT REPORT WEATHER SUCH
AS PRECIPITATION OR FOG.

IAZ001>003-012>014-020>022-031>034-043>046-240600-
   NORTHWEST IOWA

CITY           SKY/WX    TMP DP  RH WIND       PRES   REMARKS
CARROLL *      CLOUDY    64  64 100 SE7       30.05F
CHEROKEE *     CLOUDY    66  61  84 S5        30.03F
DENISON *      CLOUDY    64  61  88 SE6       30.06F
LE MARS *      CLOUDY   N/A N/A N/A SE10G17   30.00F
ORANGE CITY *  CLOUDY    66  61  82 S6        30.03R
SHELDON *      CLOUDY    63  61  94 SE5       30.01S
SIOUX CITY     CLOUDY    66  62  87 SE9       30.02S
SPENCER        CLOUDY    64  61  90 S5        30.05R
STORM LAKE *   CLOUDY    64  59  82 SE7       30.05S
$$

IAZ055>058-069>071-079>083-090>094-240600-
   SOUTHWEST IOWA

CITY           SKY/WX    TMP DP  RH WIND       PRES   REMARKS
ATLANTIC *     PTCLDY    59  59 100 CALM      30.06S
AUDUBON *      CLOUDY    63  61  94 CALM      30.08S
CLARINDA *       N/A     57  57 100 CALM      30.08R
COUNCIL BLFS * PTCLDY    64  61  88 S6        30.05R
CRESTON *      MOCLDY    63  55  77 CALM      30.07S
HARLAN  *      CLOUDY    61  61 100 CALM      30.09S
LAMONI         CLEAR     66  55  67 S5        30.06S
RED OAK *      MOCLDY    61  59  94 CALM      30.06R
SHENANDOAH *   MOCLDY    61  59  94 CALM      30.06S
$$

IAZ047>049-059>061-072>074-084-240600-
   CENTRAL IOWA

CITY           SKY/WX    TMP DP  RH WIND       PRES   REMARKS
AMES           MOCLDY    63  62  97 CALM      30.06R
ANKENY *       CLOUDY    63  59  88 CALM      30.09R
BOONE *        MOCLDY    64  59  82 S6        30.06F
CHARITON *     CLEAR     61  57  88 SE5       30.06S
DES MOINES     CLOUDY    70  54  56 N5        30.08R
GRINNELL*      MOCLDY    60  55  82 CALM      30.08R
KNOXVILLE *    MOCLDY    63  54  72 S5        30.05R
MARSHALLTOWN   MOCLDY    61  58  90 CALM      30.07R
NEWTON *       MOCLDY    63  55  77 CALM      30.08R
PELLA *        PTCLDY    62  53  74 CALM      30.07S
PERRY *        CLOUDY    64  62  96 N3        30.06F
$$

IAZ004>006-015-016-023>025-035-036-240600-
   NORTH CENTRAL IOWA

CITY           SKY/WX    TMP DP  RH WIND       PRES   REMARKS
ALGONA *       CLOUDY    64  59  82 SE6       30.05F
CLARION *      CLOUDY    61  61 100 SE7       30.06F
ESTHERVILLE    CLOUDY    62  61  96 S6        30.04S
MASON CITY     CLOUDY    60  57  89 CALM      30.08S
FOREST CITY *  CLOUDY    61  57  88 SE5       30.06F
WEBSTER CITY * CLOUDY    63  59  88 S7        30.04F
IOWA FALLS *   MOCLDY    60  58  92 CALM      30.08F
$$

IAZ007>011-017>019-026>030-037>042-050>054-066-240600-
   NORTHEAST IOWA

CITY           SKY/WX    TMP DP  RH WIND       PRES   REMARKS
CEDAR RAPIDS   CLEAR     59  53  80 N3        30.06R
CHARLES CITY * CLOUDY    59  59 100 CALM      30.07F
CLINTON *      CLEAR     56  54  93 CALM      30.06R
DECORAH *      PTCLDY    55  54  94 CALM      30.07R
MONTICELLO *   CLEAR     55  55 100 CALM      30.06S
OELWEIN *      PTCLDY    57  55  94 CALM      30.08S
WATERLOO       CLOUDY    58  56  93 CALM      30.06R
$$

IAZ064-065-067-068-078-240600-
   EAST CENTRAL IOWA

CITY           SKY/WX    TMP DP  RH WIND       PRES   REMARKS
DAVENPORT      CLEAR     58  54  86 W6        30.07R
IOWA CITY      CLEAR     60  55  83 CALM      30.07R
MT. PLEASANT * CLEAR     57  56  96 CALM      30.07R
MUSCATINE *    CLEAR     57  54  88 CALM      30.06R
QUAD CITIES    CLEAR     59  54  83 CALM      30.05R
$$

IAZ062-063-075>077-085>089-095>099-240600-
   SOUTHEAST IOWA

CITY           SKY/WX    TMP DP  RH WIND       PRES   REMARKS
BURLINGTON     CLEAR     60  56  86 CALM      30.06R
FAIRFIELD *    CLEAR     59  54  82 CALM      30.06R
FORT MADISON * CLEAR     57  54  88 CALM      30.07R
KEOKUK *       CLEAR     59  57  94 CALM      30.06R
OSKALOOSA *      N/A     55  53  93 SE3       30.07S
CENTERVILLE *    N/A     59  54  82 CALM      30.08S
OTTUMWA        CLEAR     60  54  80 CALM      30.06R
WASHINGTON *   CLEAR     57  55  94 CALM      30.07S
$$

ABBREVIATIONS USED IN REMARKS
   TC - TEMPERATURES IN CELSIUS
  WCI - WIND CHILL INDEX
   HX - HEAT INDEX
  VSB - VISIBILITY
$$





USA.gov is the U.S. government's official web portal to all federal, state and local government web resources and services.